Time,TemperatureF,DewpointF,PressureIn,WindDirection,WindDirectionDegrees,WindSpeedMPH,WindSpeedGustMPH,Humidity,HourlyPrecipIn,Conditions,Clouds,dailyrainin,SoftwareType,DateUTC
2013-01-03 00:00:00,22.5,19.0,30.19,SW,218,7.0,11.0,86,0.00,,---,0.00,VWS V14.01,2013-01-03 05:00:00,
2013-01-03 00:01:00,22.5,19.0,30.19,SW,214,7.0,11.0,86,0.00,,---,0.00,VWS V14.01,2013-01-03 05:01:00,
2013-01-03 00:04:00,22.5,19.0,30.19,SSW,201,4.0,8.0,86,0.00,,---,0.00,VWS V14.01,2013-01-03 05:04:00,
2013-01-03 00:09:00,22.4,18.9,30.19,SW,222,6.0,8.0,86,0.00,,---,0.00,VWS V14.01,2013-01-03 05:09:00,
2013-01-03 00:15:00,22.3,18.8,30.19,WSW,238,7.0,10.0,86,0.00,,---,0.00,VWS V14.01,2013-01-03 05:15:00,
2013-01-03 00:20:00,22.3,18.8,30.19,SW,221,5.0,10.0,86,0.00,,---,0.00,VWS V14.01,2013-01-03 05:20:00,
2013-01-03 00:25:00,22.1,18.6,30.19,SW,219,6.0,10.0,86,0.00,,---,0.00,VWS V14.01,2013-01-03 05:25:00,
2013-01-03 00:30:00,22.0,18.5,30.18,SW,229,6.0,10.0,86,0.00,,---,0.00,VWS V14.01,2013-01-03 05:30:00,
2013-01-03 00:35:00,22.0,18.5,30.19,SW,229,5.0,10.0,86,0.00,,---,0.00,VWS V14.01,2013-01-03 05:35:00,
2013-01-03 00:40:00,21.8,18.3,30.19,SSW,210,6.0,10.0,86,0.00,,---,0.00,VWS V14.01,2013-01-03 05:40:00,
2013-01-03 00:45:00,21.7,18.2,30.19,SW,231,5.0,10.0,86,0.00,,---,0.00,VWS V14.01,2013-01-03 05:45:00,
2013-01-03 00:50:00,21.6,18.1,30.19,SW,231,5.0,10.0,86,0.00,,---,0.00,VWS V14.01,2013-01-03 05:50:00,
2013-01-03 00:56:00,21.5,18.0,30.19,SW,214,7.0,10.0,86,0.00,,---,0.00,VWS V14.01,2013-01-03 05:56:00,
2013-01-03 01:01:00,21.5,18.0,30.19,SW,217,8.0,12.0,86,0.00,,---,0.00,VWS V14.01,2013-01-03 06:01:00,
2013-01-03 01:06:00,21.3,17.8,30.19,SW,221,10.0,12.0,86,0.00,,---,0.00,VWS V14.01,2013-01-03 06:06:00,
2013-01-03 01:11:00,21.2,17.7,30.19,SSW,212,7.0,12.0,86,0.00,,---,0.00,VWS V14.01,2013-01-03 06:11:00,
2013-01-03 01:16:00,21.0,17.5,30.18,SSW,213,7.0,12.0,86,0.00,,---,0.00,VWS V14.01,2013-01-03 06:16:00,
2013-01-03 01:21:00,20.8,17.3,30.18,SSW,207,7.0,12.0,86,0.00,,---,0.00,VWS V14.01,2013-01-03 06:21:00,
2013-01-03 01:26:00,20.6,17.4,30.18,SW,235,10.0,12.0,87,0.00,,---,0.00,VWS V14.01,2013-01-03 06:26:00,
2013-01-03 01:31:00,20.4,17.2,30.18,SSW,195,4.0,12.0,87,0.00,,---,0.00,VWS V14.01,2013-01-03 06:31:00,
2013-01-03 01:37:00,20.1,16.9,30.18,SW,222,5.0,12.0,87,0.00,,---,0.00,VWS V14.01,2013-01-03 06:37:00,
2013-01-03 01:42:00,19.8,16.6,30.18,SW,214,4.0,12.0,87,0.00,,---,0.00,VWS V14.01,2013-01-03 06:42:00,
2013-01-03 01:47:00,19.7,16.7,30.18,SSW,205,5.0,12.0,88,0.00,,---,0.00,VWS V14.01,2013-01-03 06:47:00,
2013-01-03 01:52:00,19.6,16.6,30.18,SW,219,5.0,12.0,88,0.00,,---,0.00,VWS V14.01,2013-01-03 06:52:00,
2013-01-03 01:57:00,19.4,16.2,30.18,SSW,201,5.0,12.0,87,0.00,,---,0.00,VWS V14.01,2013-01-03 06:57:00,
2013-01-03 02:02:00,19.2,16.2,30.18,SSW,200,8.0,8.0,88,0.00,,---,0.00,VWS V14.01,2013-01-03 07:02:00,
2013-01-03 02:07:00,19.1,15.9,30.18,SSW,208,5.0,10.0,87,0.00,,---,0.00,VWS V14.01,2013-01-03 07:07:00,
2013-01-03 02:13:00,18.9,15.7,30.18,SSW,203,5.0,10.0,87,0.00,,---,0.00,VWS V14.01,2013-01-03 07:13:00,
2013-01-03 02:18:00,18.8,15.3,30.18,SW,219,6.0,12.0,86,0.00,,---,0.00,VWS V14.01,2013-01-03 07:18:00,
2013-01-03 02:23:00,18.7,15.2,30.17,South,177,7.0,12.0,86,0.00,,---,0.00,VWS V14.01,2013-01-03 07:23:00,
2013-01-03 02:28:00,18.5,15.0,30.18,South,177,3.0,12.0,86,0.00,,---,0.00,VWS V14.01,2013-01-03 07:28:00,
2013-01-03 02:33:00,18.4,14.9,30.18,South,188,5.0,12.0,86,0.00,,---,0.00,VWS V14.01,2013-01-03 07:33:00,
2013-01-03 02:38:00,18.2,15.0,30.18,SSW,193,1.0,12.0,87,0.00,,---,0.00,VWS V14.01,2013-01-03 07:38:00,
2013-01-03 02:43:00,17.9,14.7,30.18,SW,221,1.0,12.0,87,0.00,,---,0.00,VWS V14.01,2013-01-03 07:43:00,
2013-01-03 02:49:00,17.7,14.5,30.18,South,190,3.0,12.0,87,0.00,,---,0.00,VWS V14.01,2013-01-03 07:49:00,
2013-01-03 02:54:00,17.5,14.3,30.18,SSE,156,3.0,12.0,87,0.00,,---,0.00,VWS V14.01,2013-01-03 07:54:00,
2013-01-03 02:59:00,17.3,14.1,30.18,SSW,207,4.0,12.0,87,0.00,,---,0.00,VWS V14.01,2013-01-03 07:59:00,
2013-01-03 03:04:00,17.1,13.9,30.18,SSE,156,4.0,8.0,87,0.00,,---,0.00,VWS V14.01,2013-01-03 08:04:00,
2013-01-03 03:09:00,17.0,13.8,30.18,SSW,198,4.0,8.0,87,0.00,,---,0.00,VWS V14.01,2013-01-03 08:09:00,
2013-01-03 03:14:00,16.9,13.4,30.17,SSW,195,5.0,8.0,86,0.00,,---,0.00,VWS V14.01,2013-01-03 08:14:00,
2013-01-03 03:19:00,16.8,13.4,30.17,South,181,5.0,8.0,86,0.00,,---,0.00,VWS V14.01,2013-01-03 08:19:00,
2013-01-03 03:24:00,16.6,12.9,30.17,SSW,193,3.0,8.0,85,0.00,,---,0.00,VWS V14.01,2013-01-03 08:24:00,
2013-01-03 03:30:00,16.5,12.8,30.17,South,186,6.0,8.0,85,0.00,,---,0.00,VWS V14.01,2013-01-03 08:30:00,
2013-01-03 03:35:00,16.4,12.4,30.17,SSE,163,4.0,8.0,84,0.00,,---,0.00,VWS V14.01,2013-01-03 08:35:00,
2013-01-03 03:40:00,16.3,12.1,30.17,SSW,208,1.0,8.0,83,0.00,,---,0.00,VWS V14.01,2013-01-03 08:40:00,
2013-01-03 03:45:00,16.1,11.9,30.17,SSW,211,3.0,8.0,83,0.00,,---,0.00,VWS V14.01,2013-01-03 08:45:00,
2013-01-03 03:50:00,15.9,11.4,30.16,SSW,201,2.0,8.0,82,0.00,,---,0.00,VWS V14.01,2013-01-03 08:50:00,
2013-01-03 03:55:00,15.6,11.1,30.16,SW,228,1.0,8.0,82,0.00,,---,0.00,VWS V14.01,2013-01-03 08:55:00,
2013-01-03 04:00:00,15.4,11.2,30.16,South,186,3.0,8.0,83,0.00,,---,0.00,VWS V14.01,2013-01-03 09:00:00,
2013-01-03 04:05:00,15.3,11.1,30.16,SSE,165,2.0,5.0,83,0.00,,---,0.00,VWS V14.01,2013-01-03 09:05:00,
2013-01-03 04:11:00,15.1,10.9,30.16,SSW,203,2.0,5.0,83,0.00,,---,0.00,VWS V14.01,2013-01-03 09:11:00,
2013-01-03 04:16:00,14.8,10.6,30.16,SSW,212,2.0,5.0,83,0.00,,---,0.00,VWS V14.01,2013-01-03 09:16:00,
2013-01-03 04:21:00,14.7,10.5,30.16,South,186,4.0,5.0,83,0.00,,---,0.00,VWS V14.01,2013-01-03 09:21:00,
2013-01-03 04:26:00,14.7,10.2,30.16,SSW,193,2.0,5.0,82,0.00,,---,0.00,VWS V14.01,2013-01-03 09:26:00,
2013-01-03 04:31:00,14.7,10.2,30.15,SW,215,3.0,6.0,82,0.00,,---,0.00,VWS V14.01,2013-01-03 09:31:00,
2013-01-03 04:36:00,14.7,9.9,30.15,SW,215,3.0,7.0,81,0.00,,---,0.00,VWS V14.01,2013-01-03 09:36:00,
2013-01-03 04:41:00,14.6,9.8,30.15,South,172,4.0,7.0,81,0.00,,---,0.00,VWS V14.01,2013-01-03 09:41:00,
2013-01-03 04:46:00,14.7,9.7,30.15,SW,217,3.0,7.0,80,0.00,,---,0.00,VWS V14.01,2013-01-03 09:46:00,
2013-01-03 04:51:00,14.7,9.7,30.15,SSW,195,6.0,8.0,80,0.00,,---,0.00,VWS V14.01,2013-01-03 09:51:00,
2013-01-03 04:56:00,14.9,9.6,30.14,SSW,212,7.0,9.0,79,0.00,,---,0.00,VWS V14.01,2013-01-03 09:56:00,
2013-01-03 05:02:00,15.1,9.5,30.14,SSW,208,4.0,6.0,78,0.00,,---,0.00,VWS V14.01,2013-01-03 10:02:00,
2013-01-03 05:07:00,15.1,9.5,30.14,SSW,198,7.0,8.0,78,0.00,,---,0.00,VWS V14.01,2013-01-03 10:07:00,
2013-01-03 05:12:00,15.2,9.3,30.14,SW,224,4.0,8.0,77,0.00,,---,0.00,VWS V14.01,2013-01-03 10:12:00,
2013-01-03 05:17:00,15.3,9.4,30.14,SSW,205,5.0,8.0,77,0.00,,---,0.00,VWS V14.01,2013-01-03 10:17:00,
2013-01-03 05:22:00,15.3,9.4,30.14,SSW,203,5.0,8.0,77,0.00,,---,0.00,VWS V14.01,2013-01-03 10:22:00,
2013-01-03 05:27:00,15.4,9.2,30.14,SSW,200,5.0,9.0,76,0.00,,---,0.00,VWS V14.01,2013-01-03 10:27:00,
2013-01-03 05:32:00,15.4,9.2,30.13,SSE,167,5.0,9.0,76,0.00,,---,0.00,VWS V14.01,2013-01-03 10:32:00,
2013-01-03 05:37:00,15.5,9.0,30.13,SSW,203,7.0,11.0,75,0.00,,---,0.00,VWS V14.01,2013-01-03 10:37:00,
2013-01-03 05:43:00,15.5,9.0,30.13,South,191,8.0,11.0,75,0.00,,---,0.00,VWS V14.01,2013-01-03 10:43:00,
2013-01-03 05:48:00,15.6,9.1,30.13,SSW,203,4.0,11.0,75,0.00,,---,0.00,VWS V14.01,2013-01-03 10:48:00,
2013-01-03 05:53:00,15.6,9.1,30.13,SSW,200,4.0,11.0,75,0.00,,---,0.00,VWS V14.01,2013-01-03 10:53:00,
2013-01-03 05:58:00,15.6,8.8,30.13,SSW,205,6.0,11.0,74,0.00,,---,0.00,VWS V14.01,2013-01-03 10:58:00,
2013-01-03 06:03:00,15.5,8.7,30.13,SSW,200,6.0,8.0,74,0.00,,---,0.00,VWS V14.01,2013-01-03 11:03:00,
2013-01-03 06:08:00,15.5,8.7,30.12,SSE,160,6.0,8.0,74,0.00,,---,0.00,VWS V14.01,2013-01-03 11:08:00,
2013-01-03 06:13:00,15.5,8.7,30.12,SSW,203,4.0,8.0,74,0.00,,---,0.00,VWS V14.01,2013-01-03 11:13:00,
2013-01-03 06:19:00,15.5,8.7,30.12,South,191,8.0,8.0,74,0.00,,---,0.00,VWS V14.01,2013-01-03 11:19:00,
2013-01-03 06:24:00,15.5,8.7,30.12,SSW,208,7.0,8.0,74,0.00,,---,0.00,VWS V14.01,2013-01-03 11:24:00,
2013-01-03 06:29:00,15.6,8.8,30.12,SSW,198,6.0,8.0,74,0.00,,---,0.00,VWS V14.01,2013-01-03 11:29:00,
2013-01-03 06:34:00,15.6,8.8,30.12,SSW,205,5.0,8.0,74,0.00,,---,0.00,VWS V14.01,2013-01-03 11:34:00,
2013-01-03 06:39:00,15.6,8.5,30.11,SSW,197,4.0,9.0,73,0.00,,---,0.00,VWS V14.01,2013-01-03 11:39:00,
2013-01-03 06:44:00,15.6,8.5,30.11,SSW,211,7.0,9.0,73,0.00,,---,0.00,VWS V14.01,2013-01-03 11:44:00,
2013-01-03 06:49:00,15.6,8.8,30.11,SW,215,6.0,9.0,74,0.00,,---,0.00,VWS V14.01,2013-01-03 11:49:00,
2013-01-03 06:54:00,15.6,8.8,30.11,SSW,210,4.0,9.0,74,0.00,,---,0.00,VWS V14.01,2013-01-03 11:54:00,
2013-01-03 06:59:00,15.6,8.8,30.11,SSW,212,6.0,9.0,74,0.00,,---,0.00,VWS V14.01,2013-01-03 11:59:00,
2013-01-03 07:04:00,15.6,8.8,30.12,SSW,210,6.0,7.0,74,0.00,,---,0.00,VWS V14.01,2013-01-03 12:04:00,
2013-01-03 07:09:00,15.7,8.9,30.11,SW,228,4.0,7.0,74,0.00,,---,0.00,VWS V14.01,2013-01-03 12:09:00,
2013-01-03 07:14:00,15.8,9.0,30.11,SW,224,7.0,8.0,74,0.00,,---,0.00,VWS V14.01,2013-01-03 12:14:00,
2013-01-03 07:20:00,15.8,9.3,30.10,SSE,163,5.0,8.0,75,0.00,,---,0.00,VWS V14.01,2013-01-03 12:20:00,
2013-01-03 07:25:00,15.9,9.4,30.11,SSW,207,6.0,8.0,75,0.00,,---,0.00,VWS V14.01,2013-01-03 12:25:00,
2013-01-03 07:30:00,15.9,9.1,30.11,South,179,4.0,8.0,74,0.00,,---,0.00,VWS V14.01,2013-01-03 12:30:00,
2013-01-03 07:35:00,15.9,9.1,30.11,South,172,8.0,10.0,74,0.00,,---,0.00,VWS V14.01,2013-01-03 12:35:00,
2013-01-03 07:40:00,16.0,9.5,30.11,SSW,210,4.0,10.0,75,0.00,,---,0.00,VWS V14.01,2013-01-03 12:40:00,
2013-01-03 07:45:00,16.0,9.5,30.11,South,190,6.0,10.0,75,0.00,,---,0.00,VWS V14.01,2013-01-03 12:45:00,
2013-01-03 07:50:00,16.0,9.5,30.11,SSW,210,4.0,10.0,75,0.00,,---,0.00,VWS V14.01,2013-01-03 12:50:00,
2013-01-03 07:56:00,16.0,9.5,30.10,SSE,167,4.0,10.0,75,0.00,,---,0.00,VWS V14.01,2013-01-03 12:56:00,
2013-01-03 08:01:00,16.1,9.6,30.10,SSW,201,5.0,10.0,75,0.00,,---,0.00,VWS V14.01,2013-01-03 13:01:00,
2013-01-03 08:06:00,16.1,9.6,30.11,SSW,205,5.0,8.0,75,0.00,,---,0.00,VWS V14.01,2013-01-03 13:06:00,
2013-01-03 08:11:00,16.2,9.7,30.11,SSW,205,5.0,8.0,75,0.00,,---,0.00,VWS V14.01,2013-01-03 13:11:00,
2013-01-03 08:16:00,16.2,9.7,30.11,SSW,203,6.0,8.0,75,0.00,,---,0.00,VWS V14.01,2013-01-03 13:16:00,
2013-01-03 08:21:00,16.3,9.8,30.11,South,184,8.0,12.0,75,0.00,,---,0.00,VWS V14.01,2013-01-03 13:21:00,
2013-01-03 08:26:00,16.3,10.1,30.11,SSW,212,7.0,12.0,76,0.00,,---,0.00,VWS V14.01,2013-01-03 13:26:00,
2013-01-03 08:31:00,16.4,9.9,30.10,SW,214,7.0,12.0,75,0.00,,---,0.00,VWS V14.01,2013-01-03 13:31:00,
2013-01-03 08:36:00,16.5,10.3,30.11,SW,233,7.0,12.0,76,0.00,,---,0.00,VWS V14.01,2013-01-03 13:36:00,
2013-01-03 08:42:00,16.5,10.3,30.11,SW,214,3.0,12.0,76,0.00,,---,0.00,VWS V14.01,2013-01-03 13:42:00,
2013-01-03 08:47:00,16.7,10.5,30.12,SW,228,5.0,12.0,76,0.00,,---,0.00,VWS V14.01,2013-01-03 13:47:00,
2013-01-03 08:52:00,16.8,10.6,30.11,SW,217,3.0,12.0,76,0.00,,---,0.00,VWS V14.01,2013-01-03 13:52:00,
2013-01-03 08:57:00,16.9,10.9,30.12,SW,217,4.0,12.0,77,0.00,,---,0.00,VWS V14.01,2013-01-03 13:57:00,
2013-01-03 09:02:00,17.1,11.1,30.11,SSW,195,4.0,7.0,77,0.00,,---,0.00,VWS V14.01,2013-01-03 14:02:00,
2013-01-03 09:07:00,17.3,11.3,30.11,SW,224,5.0,8.0,77,0.00,,---,0.00,VWS V14.01,2013-01-03 14:07:00,
2013-01-03 09:12:00,17.5,11.5,30.11,SSW,208,6.0,8.0,77,0.00,,---,0.00,VWS V14.01,2013-01-03 14:12:00,
2013-01-03 09:17:00,17.8,11.8,30.12,SW,226,6.0,8.0,77,0.00,,---,0.00,VWS V14.01,2013-01-03 14:17:00,
2013-01-03 09:23:00,18.0,12.0,30.12,SSW,210,8.0,8.0,77,0.00,,---,0.00,VWS V14.01,2013-01-03 14:23:00,
2013-01-03 09:28:00,18.2,12.2,30.12,SW,217,6.0,9.0,77,0.00,,---,0.00,VWS V14.01,2013-01-03 14:28:00,
2013-01-03 09:33:00,18.4,12.4,30.12,SW,231,6.0,9.0,77,0.00,,---,0.00,VWS V14.01,2013-01-03 14:33:00,
2013-01-03 09:38:00,18.6,12.6,30.11,WSW,243,6.0,9.0,77,0.00,,---,0.00,VWS V14.01,2013-01-03 14:38:00,
2013-01-03 09:43:00,18.9,12.9,30.12,SSW,207,5.0,9.0,77,0.00,,---,0.00,VWS V14.01,2013-01-03 14:43:00,
2013-01-03 09:48:00,19.2,13.2,30.12,SW,214,6.0,9.0,77,0.00,,---,0.00,VWS V14.01,2013-01-03 14:48:00,
2013-01-03 09:53:00,19.3,13.3,30.11,SW,217,3.0,10.0,77,0.00,,---,0.00,VWS V14.01,2013-01-03 14:53:00,
2013-01-03 09:59:00,19.5,13.5,30.12,WSW,256,3.0,10.0,77,0.00,,---,0.00,VWS V14.01,2013-01-03 14:59:00,
2013-01-03 10:04:00,19.8,14.1,30.12,WSW,252,7.0,8.0,78,0.00,,---,0.00,VWS V14.01,2013-01-03 15:04:00,
2013-01-03 10:09:00,20.0,14.3,30.12,SW,231,4.0,10.0,78,0.00,,---,0.00,VWS V14.01,2013-01-03 15:09:00,
2013-01-03 10:14:00,20.3,14.6,30.12,SW,233,5.0,10.0,78,0.00,,---,0.00,VWS V14.01,2013-01-03 15:14:00,
2013-01-03 10:19:00,20.5,14.7,30.12,WSW,248,6.0,10.0,78,0.00,,---,0.00,VWS V14.01,2013-01-03 15:19:00,
2013-01-03 10:24:00,20.6,15.1,30.13,WSW,242,4.0,10.0,79,0.00,,---,0.00,VWS V14.01,2013-01-03 15:24:00,
2013-01-03 10:29:00,20.9,15.4,30.13,SW,226,7.0,10.0,79,0.00,,---,0.00,VWS V14.01,2013-01-03 15:29:00,
2013-01-03 10:35:00,21.1,15.9,30.13,SSW,211,5.0,10.0,80,0.00,,---,0.00,VWS V14.01,2013-01-03 15:35:00,
2013-01-03 10:40:00,21.3,16.1,30.13,SW,224,8.0,10.0,80,0.00,,---,0.00,VWS V14.01,2013-01-03 15:40:00,
2013-01-03 10:45:00,21.5,16.3,30.13,SW,233,7.0,10.0,80,0.00,,---,0.00,VWS V14.01,2013-01-03 15:45:00,
2013-01-03 10:50:00,21.7,16.8,30.12,SW,229,6.0,10.0,81,0.00,,---,0.00,VWS V14.01,2013-01-03 15:50:00,
2013-01-03 10:55:00,21.9,17.0,30.13,WSW,240,7.0,10.0,81,0.00,,---,0.00,VWS V14.01,2013-01-03 15:55:00,
2013-01-03 11:00:00,22.1,17.5,30.13,SW,225,5.0,10.0,82,0.00,,---,0.00,VWS V14.01,2013-01-03 16:00:00,
2013-01-03 11:05:00,22.3,17.6,30.13,WSW,249,5.0,7.0,82,0.00,,---,0.00,VWS V14.01,2013-01-03 16:05:00,
2013-01-03 11:10:00,22.5,18.1,30.12,SW,231,7.0,10.0,83,0.00,,---,0.00,VWS V14.01,2013-01-03 16:10:00,
2013-01-03 11:15:00,22.7,18.3,30.12,SW,215,8.0,10.0,83,0.00,,---,0.00,VWS V14.01,2013-01-03 16:15:00,
2013-01-03 11:21:00,22.9,18.8,30.12,SW,218,3.0,12.0,84,0.00,,---,0.00,VWS V14.01,2013-01-03 16:21:00,
2013-01-03 11:26:00,23.2,19.4,30.11,SW,218,6.0,12.0,85,0.00,,---,0.00,VWS V14.01,2013-01-03 16:26:00,
2013-01-03 11:31:00,23.4,19.6,30.11,WSW,243,6.0,13.0,85,0.00,,---,0.00,VWS V14.01,2013-01-03 16:31:00,
2013-01-03 11:36:00,23.6,19.8,30.11,SW,218,3.0,13.0,85,0.00,,---,0.00,VWS V14.01,2013-01-03 16:36:00,
2013-01-03 11:41:00,23.7,19.6,30.11,WSW,239,8.0,16.0,84,0.00,,---,0.00,VWS V14.01,2013-01-03 16:41:00,
2013-01-03 11:47:00,23.8,20.0,30.10,SW,228,6.0,16.0,85,0.00,,---,0.00,VWS V14.01,2013-01-03 16:47:00,
2013-01-03 11:52:00,23.9,19.8,30.10,WSW,248,9.0,16.0,84,0.00,,---,0.00,VWS V14.01,2013-01-03 16:52:00,
2013-01-03 11:57:00,24.0,19.9,30.10,WSW,258,6.0,18.0,84,0.00,,---,0.00,VWS V14.01,2013-01-03 16:57:00,
2013-01-03 12:02:00,24.2,20.1,30.10,SW,232,10.0,10.0,84,0.00,,---,0.00,VWS V14.01,2013-01-03 17:02:00,
2013-01-03 12:07:00,24.2,20.1,30.09,West,278,6.0,12.0,84,0.00,,---,0.00,VWS V14.01,2013-01-03 17:07:00,
2013-01-03 12:12:00,24.3,20.2,30.09,WSW,250,7.0,12.0,84,0.00,,---,0.00,VWS V14.01,2013-01-03 17:12:00,
2013-01-03 12:17:00,24.4,20.3,30.09,West,271,8.0,12.0,84,0.00,,---,0.00,VWS V14.01,2013-01-03 17:17:00,
2013-01-03 12:22:00,24.4,20.3,30.09,SW,214,5.0,12.0,84,0.00,,---,0.00,VWS V14.01,2013-01-03 17:22:00,
2013-01-03 12:27:00,24.5,20.4,30.09,SW,224,6.0,14.0,84,0.00,,---,0.00,VWS V14.01,2013-01-03 17:27:00,
2013-01-03 12:32:00,24.6,20.5,30.09,WSW,243,9.0,14.0,84,0.00,,---,0.00,VWS V14.01,2013-01-03 17:32:00,
2013-01-03 12:37:00,24.8,20.9,30.09,West,262,5.0,14.0,85,0.00,,---,0.00,VWS V14.01,2013-01-03 17:37:00,
2013-01-03 12:42:00,25.0,21.1,30.09,WSW,238,10.0,14.0,85,0.00,,---,0.00,VWS V14.01,2013-01-03 17:42:00,
2013-01-03 12:47:00,25.2,21.3,30.09,West,260,5.0,14.0,85,0.00,,---,0.00,VWS V14.01,2013-01-03 17:47:00,
2013-01-03 12:53:00,25.3,21.4,30.09,WSW,257,11.0,14.0,85,0.00,,---,0.00,VWS V14.01,2013-01-03 17:53:00,
2013-01-03 12:58:00,25.5,21.6,30.09,WSW,253,4.0,14.0,85,0.00,,---,0.00,VWS V14.01,2013-01-03 17:58:00,
2013-01-03 13:03:00,25.6,22.0,30.09,WSW,257,6.0,11.0,86,0.00,,---,0.00,VWS V14.01,2013-01-03 18:03:00,
2013-01-03 13:08:00,25.7,22.1,30.09,WSW,255,8.0,12.0,86,0.00,,---,0.00,VWS V14.01,2013-01-03 18:08:00,
2013-01-03 13:13:00,25.9,22.3,30.09,West,266,9.0,14.0,86,0.00,,---,0.00,VWS V14.01,2013-01-03 18:13:00,
2013-01-03 13:18:00,26.1,22.5,30.09,West,267,5.0,14.0,86,0.00,,---,0.00,VWS V14.01,2013-01-03 18:18:00,
2013-01-03 13:23:00,26.2,22.9,30.09,WSW,252,6.0,14.0,87,0.00,,---,0.00,VWS V14.01,2013-01-03 18:23:00,
2013-01-03 13:28:00,26.3,23.0,30.09,West,270,5.0,14.0,87,0.00,,---,0.00,VWS V14.01,2013-01-03 18:28:00,
2013-01-03 13:34:00,26.5,23.2,30.08,WSW,257,4.0,14.0,87,0.00,,---,0.00,VWS V14.01,2013-01-03 18:34:00,
2013-01-03 13:39:00,26.5,23.2,30.09,SW,217,6.0,14.0,87,0.00,,---,0.00,VWS V14.01,2013-01-03 18:39:00,
2013-01-03 13:44:00,26.6,23.3,30.09,West,270,5.0,14.0,87,0.00,,---,0.00,VWS V14.01,2013-01-03 18:44:00,
2013-01-03 13:49:00,26.7,23.4,30.08,West,271,8.0,14.0,87,0.00,,---,0.00,VWS V14.01,2013-01-03 18:49:00,
2013-01-03 13:54:00,26.7,23.4,30.09,WSW,257,8.0,14.0,87,0.00,,---,0.00,VWS V14.01,2013-01-03 18:54:00,
2013-01-03 13:59:00,26.7,23.4,30.08,West,267,9.0,14.0,87,0.00,,---,0.00,VWS V14.01,2013-01-03 18:59:00,
2013-01-03 14:04:00,26.7,23.4,30.08,West,280,6.0,9.0,87,0.00,,---,0.00,VWS V14.01,2013-01-03 19:04:00,
2013-01-03 14:09:00,26.7,23.4,30.08,WSW,246,10.0,13.0,87,0.00,,---,0.00,VWS V14.01,2013-01-03 19:09:00,
2013-01-03 14:14:00,26.6,23.3,30.08,WSW,240,8.0,14.0,87,0.00,,---,0.00,VWS V14.01,2013-01-03 19:14:00,
2013-01-03 14:51:00,26.7,23.6,30.09,WSW,245,9.0,15.0,88,0.00,,---,0.00,VWS V14.01,2013-01-03 19:51:00,
2013-01-03 14:57:00,26.7,23.9,30.09,West,274,7.0,15.0,89,0.00,,---,0.00,VWS V14.01,2013-01-03 19:57:00,
2013-01-03 15:02:00,26.7,23.9,30.10,WSW,246,8.0,11.0,89,0.00,,---,0.00,VWS V14.01,2013-01-03 20:02:00,
2013-01-03 15:07:00,26.8,24.0,30.10,WSW,252,6.0,11.0,89,0.00,,---,0.00,VWS V14.01,2013-01-03 20:07:00,
2013-01-03 15:12:00,26.8,24.0,30.10,West,260,6.0,16.0,89,0.00,,---,0.00,VWS V14.01,2013-01-03 20:12:00,
2013-01-03 15:17:00,26.9,24.1,30.10,West,267,8.0,16.0,89,0.00,,---,0.00,VWS V14.01,2013-01-03 20:17:00,
2013-01-03 15:22:00,26.9,24.1,30.11,West,263,14.0,16.0,89,0.00,,---,0.00,VWS V14.01,2013-01-03 20:22:00,
2013-01-03 15:27:00,26.9,24.1,30.11,WSW,246,8.0,16.0,89,0.00,,---,0.00,VWS V14.01,2013-01-03 20:27:00,
2013-01-03 15:32:00,27.0,24.2,30.11,West,269,6.0,16.0,89,0.00,,---,0.00,VWS V14.01,2013-01-03 20:32:00,
2013-01-03 15:38:00,27.0,24.2,30.11,West,262,5.0,16.0,89,0.00,,---,0.00,VWS V14.01,2013-01-03 20:38:00,
2013-01-03 15:43:00,27.0,24.2,30.11,SW,224,10.0,16.0,89,0.00,,---,0.00,VWS V14.01,2013-01-03 20:43:00,
2013-01-03 15:48:00,27.1,24.6,30.11,SW,219,8.0,16.0,90,0.00,,---,0.00,VWS V14.01,2013-01-03 20:48:00,
2013-01-03 15:53:00,27.1,24.6,30.11,WSW,246,7.0,16.0,90,0.00,,---,0.00,VWS V14.01,2013-01-03 20:53:00,
2013-01-03 15:58:00,27.1,24.6,30.11,WSW,257,5.0,16.0,90,0.00,,---,0.00,VWS V14.01,2013-01-03 20:58:00,
2013-01-03 16:03:00,27.2,24.7,30.11,West,276,5.0,9.0,90,0.00,,---,0.00,VWS V14.01,2013-01-03 21:03:00,
2013-01-03 16:08:00,27.3,24.8,30.11,West,262,5.0,15.0,90,0.00,,---,0.00,VWS V14.01,2013-01-03 21:08:00,
2013-01-03 16:13:00,27.3,24.8,30.11,WSW,257,7.0,15.0,90,0.00,,---,0.00,VWS V14.01,2013-01-03 21:13:00,
2013-01-03 16:19:00,27.4,24.9,30.12,SW,226,6.0,15.0,90,0.00,,---,0.00,VWS V14.01,2013-01-03 21:19:00,
2013-01-03 16:24:00,27.5,25.0,30.12,WSW,246,11.0,15.0,90,0.00,,---,0.00,VWS V14.01,2013-01-03 21:24:00,
2013-01-03 16:29:00,27.5,25.0,30.12,WSW,256,5.0,15.0,90,0.00,,---,0.00,VWS V14.01,2013-01-03 21:29:00,
2013-01-03 16:34:00,27.6,25.1,30.12,WSW,253,5.0,15.0,90,0.00,,---,0.00,VWS V14.01,2013-01-03 21:34:00,
2013-01-03 16:39:00,27.6,25.1,30.12,WSW,246,9.0,15.0,90,0.00,,---,0.00,VWS V14.01,2013-01-03 21:39:00,
2013-01-03 16:44:00,27.7,25.2,30.12,WSW,252,12.0,15.0,90,0.00,,---,0.00,VWS V14.01,2013-01-03 21:44:00,
2013-01-03 16:49:00,27.7,25.2,30.12,West,274,8.0,15.0,90,0.00,,---,0.00,VWS V14.01,2013-01-03 21:49:00,
2013-01-03 16:54:00,27.7,25.2,30.12,West,269,7.0,15.0,90,0.00,,---,0.00,VWS V14.01,2013-01-03 21:54:00,
2013-01-03 16:59:00,27.8,25.2,30.13,WSW,246,8.0,16.0,90,0.00,,---,0.00,VWS V14.01,2013-01-03 21:59:00,
2013-01-03 17:05:00,27.8,25.2,30.13,WSW,253,9.0,18.0,90,0.00,,---,0.00,VWS V14.01,2013-01-03 22:05:00,
2013-01-03 17:10:00,27.8,25.2,30.13,WSW,250,8.0,18.0,90,0.00,,---,0.00,VWS V14.01,2013-01-03 22:10:00,
2013-01-03 17:15:00,27.8,25.2,30.13,West,263,7.0,18.0,90,0.00,,---,0.00,VWS V14.01,2013-01-03 22:15:00,
2013-01-03 17:20:00,27.8,25.2,30.14,West,264,7.0,18.0,90,0.00,,---,0.00,VWS V14.01,2013-01-03 22:20:00,
2013-01-03 17:25:00,27.9,25.4,30.14,WSW,246,10.0,18.0,90,0.00,,---,0.00,VWS V14.01,2013-01-03 22:25:00,
2013-01-03 17:30:00,27.9,25.4,30.14,SW,229,4.0,18.0,90,0.00,,---,0.00,VWS V14.01,2013-01-03 22:30:00,
2013-01-03 17:35:00,28.0,25.5,30.14,West,281,5.0,18.0,90,0.00,,---,0.00,VWS V14.01,2013-01-03 22:35:00,
2013-01-03 17:40:00,27.9,25.4,30.15,WSW,246,7.0,18.0,90,0.00,,---,0.00,VWS V14.01,2013-01-03 22:40:00,
2013-01-03 17:45:00,28.0,25.5,30.15,WSW,252,9.0,18.0,90,0.00,,---,0.00,VWS V14.01,2013-01-03 22:45:00,
2013-01-03 17:51:00,28.0,25.5,30.15,WSW,256,5.0,18.0,90,0.00,,---,0.00,VWS V14.01,2013-01-03 22:51:00,
2013-01-03 17:56:00,28.0,25.2,30.15,WNW,294,10.0,18.0,89,0.00,,---,0.00,VWS V14.01,2013-01-03 22:56:00,
2013-01-03 18:01:00,28.1,25.3,30.15,West,262,3.0,18.0,89,0.00,,---,0.00,VWS V14.01,2013-01-03 23:01:00,
2013-01-03 18:06:00,28.1,25.3,30.15,West,271,7.0,14.0,89,0.00,,---,0.00,VWS V14.01,2013-01-03 23:06:00,
2013-01-03 18:11:00,28.1,25.3,30.16,West,266,6.0,14.0,89,0.00,,---,0.00,VWS V14.01,2013-01-03 23:11:00,
2013-01-03 18:16:00,28.1,25.3,30.16,West,266,5.0,14.0,89,0.00,,---,0.00,VWS V14.01,2013-01-03 23:16:00,
2013-01-03 18:21:00,28.1,25.3,30.16,West,269,9.0,16.0,89,0.00,,---,0.00,VWS V14.01,2013-01-03 23:21:00,
2013-01-03 18:26:00,28.2,25.4,30.16,SW,235,10.0,16.0,89,0.00,,---,0.00,VWS V14.01,2013-01-03 23:26:00,
2013-01-03 18:31:00,28.2,25.4,30.16,West,280,7.0,16.0,89,0.00,,---,0.00,VWS V14.01,2013-01-03 23:31:00,
2013-01-03 18:37:00,28.2,25.4,30.17,West,263,5.0,16.0,89,0.00,,---,0.00,VWS V14.01,2013-01-03 23:37:00,
2013-01-03 18:42:00,28.2,25.1,30.17,NW,321,4.0,16.0,88,0.00,,---,0.00,VWS V14.01,2013-01-03 23:42:00,
2013-01-03 18:47:00,28.2,25.1,30.17,WSW,250,10.0,16.0,88,0.00,,---,0.00,VWS V14.01,2013-01-03 23:47:00,
2013-01-03 18:52:00,28.2,25.1,30.17,WNW,290,3.0,16.0,88,0.00,,---,0.00,VWS V14.01,2013-01-03 23:52:00,
2013-01-03 18:57:00,28.2,25.4,30.17,WNW,293,5.0,16.0,89,0.00,,---,0.00,VWS V14.01,2013-01-03 23:57:00,
2013-01-03 19:02:00,28.2,25.4,30.17,West,272,3.0,7.0,89,0.00,,---,0.00,VWS V14.01,2013-01-04 00:02:00,
2013-01-03 19:07:00,28.2,25.1,30.17,West,259,7.0,10.0,88,0.00,,---,0.00,VWS V14.01,2013-01-04 00:07:00,
2013-01-03 19:12:00,28.2,25.1,30.18,WSW,257,10.0,11.0,88,0.00,,---,0.00,VWS V14.01,2013-01-04 00:12:00,
2013-01-03 19:17:00,28.2,25.1,30.18,West,277,4.0,13.0,88,0.00,,---,0.00,VWS V14.01,2013-01-04 00:17:00,
2013-01-03 19:22:00,28.2,25.1,30.18,West,264,8.0,13.0,88,0.00,,---,0.00,VWS V14.01,2013-01-04 00:22:00,
2013-01-03 19:28:00,28.2,25.1,30.18,West,260,12.0,14.0,88,0.00,,---,0.00,VWS V14.01,2013-01-04 00:28:00,
2013-01-03 19:33:00,28.2,24.8,30.18,WSW,240,7.0,14.0,87,0.00,,---,0.00,VWS V14.01,2013-01-04 00:33:00,
2013-01-03 19:38:00,28.2,24.8,30.18,WNW,285,5.0,14.0,87,0.00,,---,0.00,VWS V14.01,2013-01-04 00:38:00,
2013-01-03 19:43:00,28.2,24.8,30.18,WNW,291,7.0,14.0,87,0.00,,---,0.00,VWS V14.01,2013-01-04 00:43:00,
2013-01-03 19:48:00,28.2,24.8,30.18,West,270,13.0,14.0,87,0.00,,---,0.00,VWS V14.01,2013-01-04 00:48:00,
2013-01-03 19:53:00,28.1,24.7,30.18,WNW,293,7.0,14.0,87,0.00,,---,0.00,VWS V14.01,2013-01-04 00:53:00,
2013-01-03 19:58:00,28.1,24.5,30.18,WNW,290,9.0,14.0,86,0.00,,---,0.00,VWS V14.01,2013-01-04 00:58:00,
2013-01-03 20:04:00,28.1,24.5,30.19,West,262,8.0,12.0,86,0.00,,---,0.00,VWS V14.01,2013-01-04 01:04:00,
2013-01-03 20:09:00,28.0,24.4,30.19,West,280,5.0,14.0,86,0.00,,---,0.00,VWS V14.01,2013-01-04 01:09:00,
2013-01-03 20:14:00,28.0,24.4,30.19,West,273,5.0,14.0,86,0.00,,---,0.00,VWS V14.01,2013-01-04 01:14:00,
2013-01-03 20:19:00,27.9,24.3,30.19,WNW,290,6.0,14.0,86,0.00,,---,0.00,VWS V14.01,2013-01-04 01:19:00,
2013-01-03 20:24:00,27.9,24.3,30.19,West,281,9.0,14.0,86,0.00,,---,0.00,VWS V14.01,2013-01-04 01:24:00,
2013-01-03 20:29:00,27.9,24.3,30.19,West,276,5.0,14.0,86,0.00,,---,0.00,VWS V14.01,2013-01-04 01:29:00,
2013-01-03 20:34:00,27.8,24.2,30.19,WNW,287,6.0,14.0,86,0.00,,---,0.00,VWS V14.01,2013-01-04 01:34:00,
2013-01-03 20:39:00,27.8,24.2,30.18,WNW,284,7.0,14.0,86,0.00,,---,0.00,VWS V14.01,2013-01-04 01:39:00,
2013-01-03 20:44:00,27.8,24.2,30.19,WNW,293,5.0,14.0,86,0.00,,---,0.00,VWS V14.01,2013-01-04 01:44:00,
2013-01-03 20:49:00,27.7,24.1,30.19,WNW,284,10.0,14.0,86,0.00,,---,0.00,VWS V14.01,2013-01-04 01:49:00,
2013-01-03 20:54:00,27.7,23.8,30.19,WNW,302,4.0,14.0,85,0.00,,---,0.00,VWS V14.01,2013-01-04 01:54:00,
2013-01-03 21:00:00,27.7,23.8,30.19,WNW,284,4.0,14.0,85,0.00,,---,0.00,VWS V14.01,2013-01-04 02:00:00,
2013-01-03 21:05:00,27.6,23.7,30.19,West,278,4.0,6.0,85,0.00,,---,0.00,VWS V14.01,2013-01-04 02:05:00,
2013-01-03 21:10:00,27.6,23.7,30.19,West,278,4.0,6.0,85,0.00,,---,0.00,VWS V14.01,2013-01-04 02:10:00,
2013-01-03 21:15:00,27.6,23.7,30.19,West,274,6.0,9.0,85,0.00,,---,0.00,VWS V14.01,2013-01-04 02:15:00,
2013-01-03 21:20:00,27.5,23.6,30.19,WNW,286,6.0,9.0,85,0.00,,---,0.00,VWS V14.01,2013-01-04 02:20:00,
2013-01-03 21:25:00,27.6,23.7,30.19,WSW,249,5.0,12.0,85,0.00,,---,0.00,VWS V14.01,2013-01-04 02:25:00,
2013-01-03 21:30:00,27.5,23.6,30.19,West,278,6.0,12.0,85,0.00,,---,0.00,VWS V14.01,2013-01-04 02:30:00,
2013-01-03 21:35:00,27.5,23.3,30.19,NNW,334,6.0,12.0,84,0.00,,---,0.00,VWS V14.01,2013-01-04 02:35:00,
2013-01-03 21:40:00,27.6,23.4,30.19,WNW,291,6.0,13.0,84,0.00,,---,0.00,VWS V14.01,2013-01-04 02:40:00,
2013-01-03 21:45:00,27.5,23.3,30.19,WNW,294,5.0,13.0,84,0.00,,---,0.00,VWS V14.01,2013-01-04 02:45:00,
2013-01-03 21:51:00,27.6,22.8,30.19,West,276,6.0,13.0,82,0.00,,---,0.00,VWS V14.01,2013-01-04 02:51:00,
2013-01-03 21:56:00,27.6,22.8,30.19,West,280,5.0,13.0,82,0.00,,---,0.00,VWS V14.01,2013-01-04 02:56:00,
2013-01-03 22:01:00,27.6,22.8,30.19,NW,314,8.0,13.0,82,0.00,,---,0.00,VWS V14.01,2013-01-04 03:01:00,
2013-01-03 22:06:00,27.6,22.5,30.19,WSW,246,7.0,11.0,81,0.00,,---,0.00,VWS V14.01,2013-01-04 03:06:00,
2013-01-03 22:11:00,27.6,22.8,30.19,West,281,7.0,11.0,82,0.00,,---,0.00,VWS V14.01,2013-01-04 03:11:00,
2013-01-03 22:16:00,27.6,22.8,30.19,West,267,3.0,11.0,82,0.00,,---,0.00,VWS V14.01,2013-01-04 03:16:00,
2013-01-03 22:21:00,27.6,22.8,30.19,West,266,3.0,11.0,82,0.00,,---,0.00,VWS V14.01,2013-01-04 03:21:00,
2013-01-03 22:26:00,27.5,22.7,30.18,WSW,242,3.0,11.0,82,0.00,,---,0.00,VWS V14.01,2013-01-04 03:26:00,
2013-01-03 22:31:00,27.6,22.5,30.18,WSW,250,6.0,14.0,81,0.00,,---,0.00,VWS V14.01,2013-01-04 03:31:00,
2013-01-03 22:37:00,27.7,22.6,30.18,West,277,5.0,14.0,81,0.00,,---,0.00,VWS V14.01,2013-01-04 03:37:00,
2013-01-03 22:42:00,27.7,22.4,30.18,WNW,302,4.0,14.0,80,0.00,,---,0.00,VWS V14.01,2013-01-04 03:42:00,
2013-01-03 22:47:00,27.8,22.4,30.18,WSW,257,2.0,14.0,80,0.00,,---,0.00,VWS V14.01,2013-01-04 03:47:00,
2013-01-03 22:52:00,27.8,22.4,30.19,West,281,3.0,14.0,80,0.00,,---,0.00,VWS V14.01,2013-01-04 03:52:00,
2013-01-03 22:57:00,27.8,22.4,30.18,SW,231,5.0,14.0,80,0.00,,---,0.00,VWS V14.01,2013-01-04 03:57:00,
2013-01-03 23:02:00,27.8,22.4,30.18,WSW,253,6.0,9.0,80,0.00,,---,0.00,VWS V14.01,2013-01-04 04:02:00,
2013-01-03 23:07:00,27.7,22.6,30.18,WSW,246,6.0,10.0,81,0.00,,---,0.00,VWS V14.01,2013-01-04 04:07:00,
2013-01-03 23:12:00,27.6,22.8,30.18,WSW,246,4.0,10.0,82,0.00,,---,0.00,VWS V14.01,2013-01-04 04:12:00,
2013-01-03 23:17:00,27.5,22.7,30.18,WSW,254,3.0,10.0,82,0.00,,---,0.00,VWS V14.01,2013-01-04 04:17:00,
2013-01-03 23:22:00,27.5,23.0,30.18,West,260,4.0,10.0,83,0.00,,---,0.00,VWS V14.01,2013-01-04 04:22:00,
2013-01-03 23:28:00,27.5,23.3,30.18,WSW,240,4.0,10.0,84,0.00,,---,0.00,VWS V14.01,2013-01-04 04:28:00,
2013-01-03 23:33:00,27.4,23.2,30.17,SW,235,5.0,10.0,84,0.00,,---,0.00,VWS V14.01,2013-01-04 04:33:00,
2013-01-03 23:38:00,27.4,23.5,30.17,WSW,240,8.0,11.0,85,0.00,,---,0.00,VWS V14.01,2013-01-04 04:38:00,
2013-01-03 23:43:00,27.4,23.5,30.17,SW,228,6.0,11.0,85,0.00,,---,0.00,VWS V14.01,2013-01-04 04:43:00,
2013-01-03 23:48:00,27.3,23.7,30.17,SW,233,5.0,11.0,86,0.00,,---,0.00,VWS V14.01,2013-01-04 04:48:00,
2013-01-03 23:53:00,27.4,23.8,30.17,SW,233,5.0,11.0,86,0.00,,---,0.00,VWS V14.01,2013-01-04 04:53:00,
2013-01-03 23:59:00,27.4,23.8,30.17,SW,228,6.0,11.0,86,0.00,,---,0.00,VWS V14.01,2013-01-04 04:59:00,